Location: *
(32.3300°N, 34.8500°E)
Time: 03:22:34
(UTC+00:00)

Daily predictions for brighter satellites

Satellite Brightness Start Highest point End
(mag) Time Altitude Azimuth Time Altitude Azimuth Time Altitude Azimuth
ATLAS 2AS CENTAUR R/B 4.0 00:46:13 37° NNE 00:46:13 37° NNE 00:50:50 10° NNE
Cosmos 2237 Rocket 4.3 00:52:00 20° NNE 00:52:00 20° NNE 00:53:42 10° NNE
USA 238 DEB 4.4 00:56:22 51° SE 00:56:22 51° SE 01:01:47 10° SE
USA 238 4.4 00:56:23 51° SE 00:56:23 51° SE 01:01:51 10° SE
H-2A ROCKET BODY 4.3 01:08:06 45° SSW 01:11:55 60° SSE 02:09:16 10° E
NOSS 3-2 (A) 4.0 01:16:14 68° NNW 01:17:31 89° ENE 01:26:08 10° SSE
USA 267 4.3 01:15:15 10° NNE 01:19:27 32° N 01:19:27 32° N
Cosmos 676 Rocket 4.3 01:33:07 65° ENE 01:33:07 65° ENE 01:37:47 10° NNE
IDEFIX/ARIANE 42P 4.0 01:29:23 10° N 01:31:41 27° N 01:31:41 27° N
Cosmos 1953 4.1 01:33:02 17° NNE 01:35:30 30° E 01:39:02 10° SE
H-2A R/B 4.2 01:32:08 10° NNE 01:34:13 28° NNE 01:34:13 28° NNE
BREEZE-M DEB (TANK) 4.1 01:40:09 71° W 01:40:46 80° NW 01:56:33 10° NE
SL-16 R/B 2.3 01:41:22 39° S 01:43:26 71° ESE 01:49:05 10° NNE
NOSS 3-2 (C) 4.1 01:38:18 25° NNW 01:43:30 88° ENE 01:52:07 10° SSE
CZ-4B R/B 4.3 01:45:12 10° NNE 01:48:42 33° E 01:52:03 10° SSE
USA 234 4.5 01:44:50 10° E 01:50:39 36° NE 01:56:27 10° NNW
MSX 3.6 01:50:06 10° N 01:55:50 76° WNW 01:59:24 24° SSW
Cosmos 2278 Rocket 2.1 01:58:15 55° WNW 01:59:16 65° WSW 02:04:51 10° S
RESURS DK-1 3.7 02:08:15 27° N 02:08:15 27° N 02:10:25 10° N
Cosmos 2327 Rocket 4.4 02:00:35 10° SSW 02:06:46 65° W 02:12:54 10° N
Cosmos 44 2.9 02:08:08 62° SW 02:08:08 62° SW 02:12:08 10° SSE
ATLAS 3B R/B 2.7 02:03:16 12° NNW 02:09:39 84° ENE 02:16:38 10° SSE
Cosmos 2154 Rocket 3.8 02:05:25 10° S 02:11:35 75° W 02:17:47 10° N
Okean 1-7 Rocket 3.5 02:07:30 10° S 02:11:56 85° E 02:16:25 10° N
Cosmos 2228 3.2 02:10:18 10° N 02:14:32 68° E 02:18:44 10° SSE
Cosmos 1140 Rocket 4.5 02:16:16 28° NW 02:16:16 28° NW 02:19:34 10° N
Cosmos 1610 Rocket 4.5 02:10:36 10° SSW 02:16:45 61° W 02:23:02 10° N
Cosmos 1954 Rocket 4.3 02:17:40 41° W 02:18:13 42° WNW 02:23:10 10° N
CENTAUR R/B 3.2 02:10:03 10° NNW 02:18:26 79° WSW 02:27:08 10° SSE
Cosmos 2184 Rocket 4.5 02:19:25 32° WSW 02:20:43 36° WNW 02:26:26 10° NNW
Cosmos 1726 Rocket 3.4 02:21:21 10° N 02:25:41 89° ENE 02:30:00 10° S
In-Cosmos 22 4.0 02:22:10 10° SSW 02:27:27 68° W 02:32:52 10° N
Meteor PRIRODA 3.7 02:25:16 10° NNE 02:29:01 82° ESE 02:32:43 10° S
KORONAS-FOTON 4.3 02:27:40 10° S 02:31:23 61° E 02:35:06 10° NNE
SL-8 R/B 3.8 02:30:05 32° W 02:32:02 55° NW 02:36:44 10° NE
PAYLOAD A 4.4 02:27:34 10° N 02:32:09 39° WNW 02:36:52 10° SW
Cosmos 2237 Rocket 4.0 02:33:53 14° NW 02:33:53 14° NW 02:35:43 10° NNW
Nadezhda 3 Rocket 3.9 02:29:30 10° NNW 02:35:49 69° W 02:42:03 10° S
Delta 7925 Rocket 4.4 02:33:53 22° WSW 02:38:02 48° S 02:43:19 10° ESE
CZ-4B R/B 4.2 02:34:07 10° N 02:38:04 47° WNW 02:42:10 10° SSW
Cosmos 1437 Rocket 2.7 02:35:57 10° SSW 02:39:37 51° W 02:43:19 10° N
Meteor 2-5 Rocket 3.8 02:34:56 10° S 02:40:41 88° W 02:46:37 10° N
Cosmos 2341 Rocket 3.9 02:35:15 10° S 02:41:28 74° W 02:47:42 10° N
CZ-2C R/B 3.1 02:43:30 10° N 02:48:07 34° WNW 02:52:39 10° SW
COBE Rocket 4.3 02:44:08 10° SSE 02:49:06 69° ENE 02:54:12 10° N
CZ-4B DEB 4.3 02:46:33 10° NNE 02:52:01 83° ESE 02:57:28 10° SSW
Cosmos 2369 Rocket 4.4 02:48:02 10° N 02:52:37 25° ENE 02:57:10 10° ESE
Cosmos 2058 Rocket 3.0 02:48:16 10° NNW 02:52:41 69° W 02:57:07 10° S
Okean O Rocket 2.4 02:49:58 10° NNE 02:54:17 55° E 02:58:32 10° S
Cosmos 1726 2.0 02:50:55 10° NNW 02:54:32 61° W 02:58:10 10° S
Milstar 3 Cent rocket 2.5 02:51:53 13° WSW 02:56:56 53° S 03:01:25 10° E
Cosmos 1356 4.0 02:54:01 10° NNW 02:57:11 34° W 03:00:20 10° SSW
PSLV R/B 3.9 02:55:18 10° N 02:58:49 43° WNW 03:02:20 10° SSW
Cosmos 1908 3.2 02:55:13 10° N 02:59:02 87° E 03:02:50 10° S
SL-8 Rocket 3.9 02:54:06 10° S 03:00:16 74° W 03:06:27 10° N
SKYMED 2 3.8 02:56:17 10° SSE 03:00:36 76° ENE 03:04:56 10° N
Milstar 3 3.2 02:54:09 11° WSW 03:00:41 59° S 03:07:45 10° E
Cosmos 1741 Rocket 4.3 02:56:32 10° SW 03:01:36 45° WNW 03:06:42 10° N
CZ-4B R/B 3.5 03:00:25 10° NNE 03:05:41 71° ESE 03:10:58 10° S
PAYLOAD B 4.2 03:02:13 10° N 03:07:45 80° WNW 03:13:15 10° SSW
Cosmos 2366 rocket 4.0 03:04:02 10° S 03:10:22 80° W 03:16:46 10° N
Cosmos 1953 4.0 03:09:39 10° WNW 03:11:32 13° W 03:13:24 10° WSW
Cosmos 1763 Rocket 4.2 03:07:03 10° N 03:12:07 57° ENE 03:17:05 10° SSE
Cosmos 1674 3.6 03:12:01 10° SW 03:15:06 25° W 03:18:12 10° NNW
Cosmos 1943 Rocket 3.3 03:09:42 10° N 03:15:10 47° ENE 03:20:36 10° SE
BREEZE-M DEB (TANK) 3.4 03:07:27 10° WSW 03:16:09 39° NW 03:19:03 10° NNE
Meteor 1-31 Rocket 4.5 03:14:44 10° NW 03:16:38 14° WNW 03:18:33 10° W
ISS -2.2 03:13:34 10° SSW 03:16:42 38° SE 03:19:51 10° ENE
METEOR-M 4.1 03:13:04 10° N 03:18:24 77° WNW 03:23:43 10° SSW
FENGYUN 3A 3.7 03:15:35 10° N 03:21:02 79° WNW 03:26:27 10° SSW
USA 116 3.5 03:22:01 10° S 03:25:54 83° WSW 03:29:22 10° NNW
Cosmos 1603 3.9 03:21:58 10° SW 03:27:24 52° WNW 03:32:55 10° N
